GFSNGP_925_spd_096.txt.gz
Wind_Speed
7 9 14 17 18 18 15 13 8 9 3 6 5 8 10 9 11 13 15 17 16 15 15 19 23 25 25 25 27 24 15 21 16 26 25 23 21 18 18 17 17 15 15 12
13 11 13 15 15 15 15 13 12 9 10 10 9 9 12 12 11 13 14 14 15 15 16 17 22 24 24 24 25 25 24 22 18 23 22 22 24 22 20 19 18 17 14 10
10 7 14 14 13 15 6 7 5 2 5 10 9 11 10 9 11 12 12 13 14 14 14 20 22 23 24 23 24 26 26 26 24 23 23 21 20 23 25 21 20 19 17 14
8 9 6 8 12 19 16 11 10 8 6 9 10 11 9 10 10 11 11 12 12 12 17 21 24 25 25 25 26 25 27 26 27 27 29 26 27 24 22 22 22 21 19 17
3 4 11 6 5 4 5 7 8 6 6 10 12 12 11 9 10 10 8 9 13 17 18 22 26 26 26 28 28 26 25 26 27 29 33 28 34 26 23 27 27 27 24 21
3 4 4 4 17 15 8 5 9 8 6 4 9 2 2 7 8 10 14 14 15 18 20 24 25 27 29 28 28 28 27 24 29 28 29 32 32 28 29 31 28 30 32 30
10 3 4 13 21 12 3 3 8 9 12 11 5 6 6 5 8 12 14 16 18 21 23 24 25 27 26 26 26 25 27 31 33 34 29 30 30 31 34 32 32 30 30 31
6 3 3 20 7 6 6 8 9 10 10 12 10 9 6 7 8 11 13 16 19 20 23 25 26 26 24 24 23 24 27 32 31 33 31 31 29 29 27 28 31 28 26 27
5 3 4 8 11 12 9 10 9 10 9 9 8 5 7 7 8 12 14 15 19 20 21 26 24 25 24 22 22 25 30 29 28 31 30 28 29 26 26 27 24 22 22 22
3 5 10 9 10 12 11 11 10 10 9 7 9 8 7 7 7 11 15 16 17 20 21 22 26 27 23 22 25 26 26 26 28 30 30 30 29 27 26 22 22 21 18 20
6 8 9 10 8 9 10 11 11 11 8 8 9 8 7 8 10 14 16 17 19 19 20 21 23 25 21 20 18 22 22 23 24 26 26 28 30 26 26 23 22 22 21 22
2 5 5 6 7 9 8 9 8 10 10 9 10 9 11 9 13 15 16 17 18 19 18 21 24 25 23 19 18 17 15 17 18 19 19 20 22 26 26 25 23 23 22 23
3 9 11 9 9 9 9 10 11 10 10 10 11 11 15 15 17 18 17 17 16 16 17 20 22 22 20 19 18 19 20 18 14 18 19 20 19 17 18 22 23 23 21 20
4 7 4 2 6 9 12 14 15 14 14 16 16 16 16 16 16 15 14 13 13 14 15 16 18 20 17 16 17 17 18 17 17 15 13 17 17 17 17 16 16 19 19 19
7 7 8 9 10 9 14 14 12 10 13 13 13 14 15 15 14 14 13 12 13 15 15 16 20 19 14 14 15 13 14 14 14 15 14 14 14 14 14 14 15 15 15 16
6 9 8 9 9 9 9 9 10 8 10 11 11 14 15 16 15 15 14 13 15 16 16 16 18 18 13 11 13 13 13 12 12 12 11 13 13 13 11 10 12 13 13 12
7 7 7 8 7 6 8 8 10 10 12 11 11 11 13 13 13 13 15 14 14 15 15 15 14 13 12 12 10 9 9 10 11 10 11 10 10 11 13 14 15 15 15 10
8 10 9 9 9 9 9 12 12 11 10 9 13 14 15 15 12 11 11 10 9 11 13 12 11 10 11 10 9 8 7 8 8 10 10 10 9 9 9 10 10 10 10 9
13 12 13 12 11 12 11 10 10 12 12 13 14 15 13 11 8 5 5 2 8 8 11 9 9 7 9 10 8 8 7 7 6 6 6 7 7 7 8 8 9 7 5 4
12 13 13 12 11 14 14 14 15 15 13 13 13 12 11 9 7 7 7 7 7 6 6 8 9 8 7 6 6 6 4 5 6 6 5 5 5 5 5 5 5 6 5 3
10 13 14 15 15 15 16 16 16 14 11 8 9 9 8 5 2 0 1 3 2 2 6 5 9 10 2 3 4 5 5 4 5 4 4 5 4 3 3 3 3 4 4 4
15 14 15 16 17 15 11 11 11 11 10 10 8 6 5 4 5 4 2 4 3 4 3 4 8 7 2 2 3 4 4 4 4 3 3 3 3 2 2 1 4 5 4 3
15 14 15 16 15 14 11 9 10 11 11 8 7 5 4 3 3 7 4 3 4 6 5 3 4 7 4 3 2 4 4 3 3 5 4 3 4 3 2 2 3 4 5 5
15 14 15 14 14 12 9 9 8 8 7 6 8 7 6 7 6 4 3 3 4 5 5 5 5 5 5 3 5 4 6 7 6 6 4 5 8 8 5 6 7 7 7 7
14 14 14 14 9 9 9 11 10 9 9 9 8 6 8 7 4 3 4 4 5 5 5 5 5 6 5 5 6 8 8 9 9 10 10 10 9 7 8 9 8 8 9 9
12 12 14 14 14 12 10 10 9 12 11 10 14 14 11 11 9 5 6 7 8 9 10 10 11 11 12 11 12 12 12 12 12 11 11 11 11 11 13 13 12 12 11 11
10 10 11 14 13 12 10 10 8 8 5 2 2 1 1 4 6 8 9 10 11 12 12 14 14 15 16 17 18 17 15 15 15 14 13 13 12 13 13 15 15 12 12 12

GFSNGP_925_spd_099.txt.gz
Wind_Speed
6 7 7 14 17 17 12 14 7 12 10 0 5 5 10 9 12 14 15 16 16 15 14 19 23 26 26 27 27 28 29 25 18 16 23 23 22 23 22 21 20 18 16 13
6 8 13 16 20 19 15 14 15 17 14 5 6 6 12 12 12 13 14 15 15 15 15 18 24 25 26 26 27 28 30 29 25 19 19 25 23 23 23 22 21 19 16 13
6 5 10 14 11 18 8 5 12 10 4 7 8 8 12 10 10 11 12 13 15 15 14 21 24 23 24 25 26 29 31 28 32 30 22 23 20 22 21 20 18 18 15 13
4 2 5 4 16 7 15 6 8 10 8 8 11 8 8 9 9 11 11 13 13 15 19 22 24 24 23 25 31 28 31 30 29 26 31 25 30 28 24 22 21 19 17 16
3 3 8 8 2 5 3 6 8 6 9 11 12 10 9 8 10 9 9 11 15 18 19 21 25 24 24 29 30 31 31 32 32 28 30 27 34 32 29 30 30 27 22 20
2 3 3 4 11 7 7 3 8 7 4 10 8 0 2 8 8 10 14 15 17 19 21 22 24 24 26 28 30 31 31 32 32 32 30 30 27 31 29 32 32 35 26 31
6 3 5 12 16 7 1 3 8 8 9 5 4 5 7 8 8 10 13 15 17 20 20 23 23 25 27 26 28 27 31 34 36 36 34 33 25 28 25 27 35 36 33 32
5 4 4 18 5 5 6 8 9 10 10 13 10 9 9 7 7 10 13 16 19 17 20 22 25 24 25 26 24 28 31 33 32 30 31 29 26 28 30 29 29 27 26 27
4 3 4 7 9 9 7 9 9 10 9 8 7 8 8 7 7 10 12 14 17 17 19 22 24 23 24 22 24 26 30 30 31 31 32 29 28 27 26 28 23 23 23 22
2 5 8 8 9 10 11 11 10 10 9 9 9 7 7 7 6 9 12 13 14 17 19 20 23 24 23 25 25 27 26 27 29 30 31 29 29 29 28 24 22 21 20 19
4 6 7 10 8 9 10 11 12 11 9 9 9 8 7 7 8 11 12 14 15 16 17 19 23 24 21 19 19 21 20 21 23 24 23 26 31 27 27 27 23 22 22 22
2 4 5 4 7 8 9 9 8 10 8 10 11 8 9 8 12 13 13 15 17 17 18 20 23 24 23 20 18 16 17 20 21 21 20 19 19 25 26 25 23 21 21 23
3 8 11 8 7 8 9 9 10 10 11 9 14 14 13 11 11 13 15 16 16 15 16 18 21 23 21 20 20 21 19 16 19 20 18 18 18 18 17 19 23 25 22 21
5 6 5 0 6 8 10 14 14 15 16 15 13 11 11 10 11 12 13 12 13 15 16 17 20 21 19 18 18 19 19 16 14 16 16 16 16 15 16 17 18 21 23 19
6 5 7 10 9 9 11 12 10 9 10 11 9 9 8 9 10 11 11 12 13 16 18 20 19 18 16 16 16 16 15 14 13 13 11 12 13 12 13 13 14 14 13 14
7 6 6 6 8 7 7 7 8 7 7 9 9 11 11 11 12 13 14 14 15 16 16 18 19 16 14 13 13 13 13 12 10 9 9 11 11 10 9 11 11 12 13 12
8 5 6 6 6 6 6 7 8 8 10 9 9 10 10 10 10 12 15 14 15 16 16 16 16 13 12 12 11 11 10 10 9 8 7 7 9 10 11 11 13 13 11 10
3 6 6 8 8 8 7 9 9 9 8 9 11 12 12 12 11 12 12 8 10 14 14 14 12 11 10 11 10 7 8 9 8 7 7 5 5 6 7 7 8 8 8 8
11 11 12 11 10 10 9 9 8 10 11 12 13 13 11 10 7 4 4 8 8 9 12 12 12 11 9 9 9 7 6 5 5 4 5 5 3 2 3 4 4 4 4 4
10 12 13 12 10 12 12 12 13 13 11 12 13 12 10 8 8 9 7 6 7 6 7 8 11 12 7 7 7 7 7 5 4 4 3 2 1 2 3 4 5 4 2 1
8 10 11 13 14 13 14 13 14 14 11 8 10 10 8 6 3 2 1 5 5 8 7 8 11 11 8 6 6 8 8 7 5 5 5 5 3 2 3 3 4 5 6 5
11 11 13 15 16 14 11 9 10 10 10 10 10 8 6 4 4 6 7 5 6 8 8 8 10 12 9 6 6 6 7 6 5 5 5 4 4 5 5 3 4 5 6 5
13 13 14 14 13 11 9 7 7 7 8 5 4 3 3 3 3 3 7 7 7 8 8 7 7 9 11 6 5 6 6 6 6 7 7 6 6 7 7 6 5 6 6 6
13 11 12 10 10 8 7 6 5 5 3 1 1 1 3 4 3 3 4 6 7 7 8 8 8 7 8 8 8 9 9 9 9 9 8 7 9 11 10 7 9 9 9 9
11 12 11 10 6 5 5 6 4 3 3 4 5 5 6 6 6 6 6 5 6 7 8 9 10 10 11 11 12 12 13 13 13 13 14 13 13 12 12 11 11 11 11 11
12 11 11 9 6 4 5 7 6 6 8 9 11 10 11 12 12 11 8 9 10 11 13 14 15 17 19 20 20 20 20 20 18 17 17 17 16 14 14 14 14 14 14 13
9 8 6 5 7 8 9 7 6 4 4 1 1 3 4 5 5 8 9 10 11 10 11 13 14 14 15 15 15 16 17 16 18 21 23 20 19 18 16 16 16 16 16 14

GFSNGP_925_spd_102.txt.gz
Wind_Speed
4 3 3 7 12 11 12 13 10 13 14 7 2 5 7 8 9 11 15 16 15 15 15 21 24 27 28 28 28 25 25 28 27 22 16 14 16 26 25 26 23 21 21 19
3 4 7 16 15 14 14 17 14 17 22 4 8 7 8 8 9 11 13 14 15 15 15 19 24 26 27 29 29 26 25 25 29 30 29 22 17 24 24 24 23 22 19 15
4 2 9 11 10 7 12 16 16 15 10 10 8 8 9 8 11 10 11 12 14 14 15 22 25 24 25 26 27 26 27 27 30 31 34 35 27 24 24 24 22 21 17 14
2 3 4 6 3 6 8 10 8 5 8 8 11 10 10 13 8 9 10 12 12 14 19 23 25 27 25 28 26 29 31 33 33 25 31 34 36 28 29 29 27 24 21 17
2 3 8 7 4 4 4 4 9 5 11 13 14 11 13 10 10 8 7 9 12 16 18 21 26 27 26 28 29 31 32 33 35 31 29 38 34 27 31 35 35 32 28 26
2 2 4 2 11 8 4 2 6 5 4 10 5 4 2 7 7 7 12 14 16 18 20 24 26 25 24 26 29 30 30 28 31 32 34 34 34 29 27 35 34 33 33 32
5 2 6 11 17 9 2 3 6 7 5 8 4 5 7 5 7 11 12 16 17 19 22 23 27 25 25 25 27 26 27 31 33 33 34 33 34 35 32 31 35 32 33 34
4 4 4 15 7 4 4 7 8 10 10 15 12 10 9 8 8 10 13 16 17 17 21 24 25 25 24 25 24 27 29 31 32 34 33 32 33 34 32 30 32 27 28 30
3 3 3 5 6 10 8 7 7 8 9 11 9 10 8 7 7 10 13 14 17 17 18 23 26 23 23 24 25 26 30 31 33 32 32 32 34 30 27 28 27 25 24 24
2 3 7 7 10 10 9 9 9 9 10 10 10 8 8 7 7 10 14 15 15 17 18 21 23 24 23 22 23 26 29 29 29 30 31 31 30 30 29 26 24 23 22 21
3 6 7 9 9 8 9 9 11 11 9 8 9 8 8 7 8 12 13 15 17 17 18 20 25 27 25 21 22 22 23 23 24 24 24 26 32 28 26 31 28 25 24 22
1 3 5 4 6 7 8 8 9 10 9 10 10 7 10 9 12 13 14 15 17 19 20 22 24 25 25 24 21 21 21 22 22 23 23 23 21 27 31 31 28 28 26 24
3 8 10 8 8 7 9 9 10 10 11 9 12 12 13 12 13 13 14 15 16 15 17 18 21 22 22 22 22 21 21 22 23 23 23 23 22 22 20 21 26 25 25 22
5 5 4 1 5 8 11 13 15 13 12 12 12 12 13 13 11 12 13 11 13 15 17 18 19 21 20 19 19 20 20 18 20 20 20 19 19 19 19 20 19 22 21 20
3 4 5 9 9 8 12 11 9 8 9 9 10 11 11 12 12 11 11 9 11 16 18 18 18 19 18 17 17 18 16 16 16 16 16 16 15 15 15 16 17 17 16 18
8 8 6 7 6 6 6 7 8 6 7 10 10 11 13 15 14 14 15 14 14 15 17 18 17 17 14 14 15 16 15 13 11 12 13 14 14 14 13 14 15 16 18 17
7 6 7 8 6 5 4 5 7 7 9 8 9 9 11 12 13 14 13 13 13 14 15 16 16 15 13 13 12 14 14 12 10 10 10 11 12 13 12 12 12 13 14 14
2 4 5 7 6 7 6 9 10 10 9 9 10 11 12 12 12 12 7 7 8 12 14 14 13 11 11 12 11 11 12 12 11 10 9 8 7 7 7 8 8 9 9 10
9 9 11 12 11 11 10 10 10 11 11 12 13 14 13 10 6 4 5 5 8 9 12 13 14 12 11 11 11 11 11 10 9 9 8 6 5 3 2 2 3 4 4 5
11 12 13 12 11 13 12 13 14 13 11 12 14 13 11 8 7 6 5 6 6 6 8 11 14 12 10 8 9 10 10 9 9 9 8 8 6 5 4 3 4 3 2 2
9 11 12 14 14 13 14 14 15 14 12 10 10 11 10 7 3 2 2 3 5 8 7 8 10 11 10 8 8 10 10 9 8 8 8 8 7 7 7 6 6 6 5 5
11 11 13 16 17 15 13 12 13 13 11 11 11 9 7 5 5 5 6 6 6 8 7 6 8 11 12 8 7 9 9 8 8 8 8 7 7 7 8 7 7 6 6 6
13 15 15 16 16 15 12 10 10 11 12 9 7 5 4 4 5 5 6 7 6 6 7 7 7 8 10 10 9 9 9 9 9 9 9 9 8 9 11 10 9 8 7 8
15 15 14 13 14 13 11 9 9 8 6 5 4 3 4 3 3 4 3 4 5 6 8 9 10 11 12 12 12 13 13 13 13 13 12 12 11 12 12 10 9 10 11 11
15 15 14 13 10 9 9 8 7 5 3 2 1 2 3 4 4 5 5 5 7 9 10 11 13 14 15 17 18 19 18 18 18 19 18 17 17 16 16 15 14 13 13 11
13 12 13 9 8 8 7 7 4 1 3 3 4 5 3 6 9 10 8 9 10 11 12 12 13 15 17 17 18 17 17 18 18 18 19 21 21 21 20 17 15 15 15 15
11 11 10 6 5 5 4 3 1 3 4 4 3 5 6 6 6 5 5 6 7 8 9 11 12 14 15 16 18 19 20 20 21 19 15 15 15 17 20 21 20 18 16 15

GFSNGP_925_spd_105.txt.gz
Wind_Speed
5 5 4 9 11 13 15 15 12 15 19 15 12 2 5 4 6 7 9 14 14 16 15 21 24 27 29 29 31 30 27 26 25 24 20 16 11 5 16 23 23 26 28 24
4 9 10 15 16 17 18 20 19 23 25 16 5 7 7 5 6 6 9 12 14 15 17 21 24 25 26 28 31 29 27 26 24 27 27 28 23 21 17 29 30 28 28 29
3 1 8 13 8 8 9 11 14 16 16 7 7 8 6 5 4 6 9 11 12 13 16 21 23 25 26 26 27 30 29 29 28 28 29 31 33 32 27 31 29 26 29 27
2 2 4 2 4 4 9 1 8 11 3 11 13 10 8 6 5 8 10 11 11 15 19 21 23 26 24 26 29 30 31 32 33 30 28 30 35 35 39 33 28 31 32 27
2 3 8 2 4 5 4 0 8 6 11 17 16 14 9 7 9 10 10 11 13 15 16 19 24 25 23 27 28 30 31 31 32 33 31 29 34 33 37 34 28 33 33 33
2 3 3 2 12 10 8 4 9 8 9 13 10 3 3 6 9 10 13 13 15 16 18 23 25 24 24 27 29 30 28 28 31 32 31 34 35 31 31 40 33 29 36 36
5 3 3 10 15 9 4 4 7 6 3 7 3 6 9 7 10 12 12 15 15 18 21 22 23 24 25 26 28 26 28 30 33 33 33 32 30 32 33 33 27 33 37 37
3 3 4 14 3 5 3 7 7 9 11 16 13 12 10 10 10 12 14 16 17 18 21 22 24 23 25 26 24 27 28 31 33 34 32 30 30 31 31 31 30 28 31 29
2 2 3 5 7 8 6 6 8 10 10 12 11 11 10 9 10 12 14 15 16 18 19 21 22 22 22 23 26 27 29 27 28 30 31 31 31 29 27 27 25 24 25 24
3 4 7 6 7 8 9 10 10 10 10 10 11 10 9 8 9 12 14 15 15 17 19 21 22 23 21 20 22 24 24 24 25 29 29 29 29 30 29 26 26 24 23 23
3 6 8 8 7 7 9 10 12 11 10 10 11 10 10 9 11 13 14 14 15 17 18 20 21 23 23 22 20 21 21 20 21 21 22 27 34 30 29 33 26 22 23 22
1 3 5 4 5 7 8 9 9 11 11 12 13 11 13 11 12 13 14 14 16 17 18 18 20 21 22 23 23 20 21 20 20 19 18 18 19 24 31 29 28 28 25 22
3 8 11 8 7 8 9 9 11 12 13 12 13 14 13 12 12 13 13 13 15 15 15 16 18 23 23 23 23 24 18 17 17 18 17 16 15 15 15 17 24 24 23 21
8 7 6 1 6 9 12 14 15 15 14 13 12 12 12 12 12 13 14 13 14 15 17 16 17 21 21 19 19 19 18 19 15 15 15 14 14 14 13 13 14 16 19 20
3 3 8 13 11 10 12 12 10 9 10 11 11 11 11 12 12 11 10 12 14 18 18 17 19 21 19 19 19 18 14 14 15 15 16 14 12 12 12 13 13 13 12 15
9 11 10 10 9 9 8 7 9 8 9 10 11 12 13 13 13 13 13 14 15 15 17 19 19 18 16 16 16 14 13 13 12 12 13 13 13 12 11 11 11 12 14 13
10 7 8 8 7 7 6 7 9 9 10 11 11 11 12 13 12 12 12 14 16 16 15 15 15 14 14 14 14 12 11 11 12 10 9 9 9 9 9 9 9 10 10 13
3 4 7 8 8 8 8 10 11 10 11 11 12 13 13 13 11 9 9 10 11 13 14 14 13 12 11 11 11 10 10 10 10 10 8 8 7 6 6 6 6 7 7 8
8 10 11 12 11 12 12 11 10 12 14 15 16 15 14 11 9 9 9 9 8 8 11 13 12 10 10 11 11 10 10 9 9 9 8 7 6 5 4 4 3 3 3 3
12 13 13 13 13 13 12 13 15 15 14 16 17 14 12 10 9 8 7 8 9 5 5 9 10 11 10 9 10 9 9 9 8 7 8 7 6 6 6 5 4 3 3 2
9 12 13 15 15 14 16 16 17 16 15 13 14 13 11 8 5 5 5 3 3 5 5 6 9 11 9 7 7 9 8 7 7 7 7 7 6 6 6 6 6 6 5 4
9 10 14 16 17 16 14 14 15 16 15 14 13 11 9 7 6 4 3 3 3 5 5 5 6 7 8 7 7 7 7 6 6 6 6 6 6 6 7 8 7 6 6 5
11 13 15 17 17 16 15 14 14 15 15 13 11 9 7 5 5 4 4 3 3 3 3 4 5 5 6 7 7 8 8 8 8 8 8 8 9 9 9 9 9 8 7 7
13 14 15 14 16 13 12 11 13 12 10 9 8 6 6 5 4 3 2 1 1 2 3 4 6 8 10 11 12 13 14 14 15 15 14 14 14 13 13 12 12 12 11 11
13 13 13 13 11 10 12 12 11 10 9 6 5 3 3 3 2 3 3 3 3 4 6 7 8 9 11 12 13 14 15 15 15 15 16 16 17 18 18 17 17 15 15 14
13 11 10 8 10 11 11 10 8 7 7 6 5 6 5 4 3 3 3 2 3 4 6 8 10 11 12 13 14 15 15 14 14 14 16 15 14 13 13 14 16 19 19 18
10 12 11 10 10 11 10 7 6 6 7 7 7 5 5 5 5 5 4 4 5 6 7 9 10 12 13 14 15 15 15 13 14 14 14 14 14 13 14 14 14 16 17 17

GFSNGP_925_spd_111.txt.gz
Wind_Speed
13 15 7 10 9 13 16 17 16 15 17 17 19 18 9 5 6 7 8 9 12 13 14 20 22 24 26 27 28 29 26 29 34 32 30 30 24 27 22 19 18 13 12 18
11 10 12 15 16 17 19 19 21 21 21 18 17 9 3 5 5 5 6 10 12 14 17 19 24 25 25 26 29 28 26 28 30 32 30 28 32 37 35 32 26 22 19 17
9 4 8 11 16 19 21 19 17 14 15 9 14 3 3 4 5 5 7 10 12 12 16 20 22 22 23 24 24 26 28 31 33 33 36 35 32 41 36 36 39 37 34 28
4 2 9 2 8 9 9 8 9 10 10 11 8 10 9 8 6 7 9 9 10 14 17 19 19 21 21 22 25 28 31 32 32 31 33 34 36 36 34 34 41 41 38 32
7 10 9 8 4 3 4 8 2 6 2 6 9 11 9 8 9 8 8 10 11 13 15 16 19 21 21 24 27 29 30 31 33 33 33 35 36 34 33 38 39 39 41 37
5 8 6 5 4 6 2 10 3 5 4 7 8 5 5 8 8 8 10 10 12 14 15 18 21 20 23 25 28 29 29 30 32 33 34 34 32 33 32 35 34 35 38 37
10 6 2 4 7 2 5 4 8 7 5 8 2 5 10 8 8 10 9 9 10 13 16 19 20 21 23 25 27 26 29 30 33 34 33 33 33 33 32 32 32 35 37 41
6 5 6 11 2 4 5 4 5 7 9 14 13 10 10 9 8 10 10 10 10 13 15 18 21 22 22 23 22 23 26 30 32 32 33 33 32 32 33 30 31 31 31 32
4 4 5 6 7 5 5 5 6 8 11 13 12 10 10 9 9 11 10 10 12 14 16 19 21 22 20 18 20 20 23 25 28 32 31 31 34 33 30 30 29 27 27 27
6 6 7 6 7 7 8 8 8 9 11 11 11 10 10 8 8 9 10 11 13 15 18 20 21 23 22 20 19 20 22 22 23 24 29 32 29 31 32 31 26 26 26 24
4 7 7 7 7 7 9 9 10 10 10 11 11 10 10 9 9 10 11 12 14 16 17 19 19 21 22 21 18 19 21 21 22 22 22 21 29 31 28 32 30 26 22 25
4 7 6 7 7 8 8 8 9 10 11 11 12 10 12 10 10 10 11 11 14 16 16 17 19 20 21 21 21 20 20 20 21 20 20 20 19 17 23 26 27 28 28 24
4 8 12 10 9 10 8 10 11 11 12 11 12 12 12 11 10 10 11 13 14 13 14 15 16 18 19 18 19 19 20 19 19 19 19 18 18 17 16 13 22 26 23 25
11 11 9 10 6 10 12 14 14 14 12 12 12 11 11 11 11 11 11 11 12 13 14 14 15 17 16 16 17 17 16 18 17 18 17 17 17 17 16 16 16 17 18 22
1 1 10 12 12 10 13 14 11 10 10 10 10 10 10 10 10 10 10 10 11 13 14 14 15 16 15 15 14 16 16 15 15 15 15 15 15 14 14 15 15 15 15 16
9 12 12 11 11 11 11 10 9 8 9 10 10 10 10 11 11 11 11 11 11 13 13 14 14 15 16 15 14 13 13 15 14 13 14 14 14 14 14 14 13 13 14 17
11 11 11 10 9 9 8 8 9 10 11 10 11 11 11 11 11 11 11 11 11 11 10 12 12 14 13 14 12 12 12 12 13 13 13 14 13 13 12 12 11 11 11 10
4 8 8 9 9 8 8 10 10 11 10 11 12 11 9 8 9 8 7 7 8 10 11 10 10 9 11 11 11 11 11 12 13 13 12 13 12 12 12 12 11 12 11 9
3 8 8 9 10 10 10 10 11 13 12 12 12 11 10 9 8 7 5 4 3 6 9 8 9 10 11 12 12 11 13 13 12 12 12 12 12 12 12 12 12 12 12 12
8 9 11 11 12 13 13 12 12 12 12 13 13 11 10 8 7 5 6 8 7 6 6 7 8 10 11 12 13 12 12 12 12 12 12 12 13 13 12 12 13 13 12 12
11 13 13 13 13 12 12 13 14 13 12 12 11 10 9 8 5 3 5 5 5 4 4 7 9 9 10 11 11 11 12 12 12 13 13 13 13 14 14 13 13 13 13 13
11 12 13 14 14 13 12 12 13 14 12 11 11 11 10 7 5 4 7 7 4 5 4 5 6 9 9 12 10 11 12 13 13 14 14 15 15 15 16 16 15 14 13 14
11 12 13 13 13 14 12 12 12 12 12 11 10 8 4 5 3 1 4 3 3 3 4 5 7 9 11 10 10 11 12 13 14 15 15 16 17 18 18 19 18 18 17 15
13 13 13 13 14 14 13 11 12 11 10 9 8 7 4 4 3 3 4 2 2 3 3 4 6 9 10 10 11 12 13 14 15 15 17 17 17 18 19 19 19 19 18 16
13 14 14 15 14 12 14 14 13 12 10 9 8 5 2 2 3 5 3 3 3 3 5 8 9 10 10 11 12 13 14 15 16 17 16 16 18 17 17 18 17 17 17 17
15 14 14 13 11 14 13 13 10 11 10 9 6 5 4 3 3 4 5 4 5 4 5 7 8 10 10 11 12 13 14 15 15 15 16 16 17 17 17 17 17 18 18 19
12 13 13 11 11 11 11 9 10 9 5 8 8 5 5 5 5 5 4 4 4 5 6 7 8 10 11 12 12 12 13 13 13 14 15 15 15 16 16 17 17 18 17 17

GFSNGP_925_spd_114.txt.gz
Wind_Speed
14 17 10 13 12 11 14 13 14 11 13 12 10 11 10 9 8 10 11 12 11 12 12 18 21 22 23 24 28 30 27 27 28 29 30 31 28 30 31 34 31 22 23 21
11 13 13 15 15 15 17 16 17 17 14 11 9 10 8 9 9 10 10 10 10 12 17 19 21 21 22 25 27 27 25 27 28 32 32 32 32 34 32 39 43 40 43 36
8 9 9 9 11 17 16 15 15 12 6 14 12 13 13 11 10 10 8 9 11 11 14 17 20 22 23 25 26 25 24 29 30 29 31 34 34 36 38 35 43 41 41 40
7 0 7 3 10 8 6 10 11 12 13 10 12 11 12 11 9 8 7 9 9 12 13 18 21 23 22 23 25 26 28 30 31 31 30 33 36 37 37 40 42 35 42 42
6 7 11 4 5 4 4 3 8 7 5 9 11 11 11 9 9 8 9 10 11 13 16 19 22 21 20 22 25 29 30 31 32 32 34 34 35 35 37 39 41 43 42 46
6 7 7 5 6 5 2 5 8 8 6 8 8 4 5 7 8 8 10 10 13 16 19 21 20 18 19 22 26 28 29 29 32 34 34 34 35 33 33 35 37 37 43 49
8 7 3 3 5 3 4 3 7 7 7 4 5 6 10 8 8 9 8 8 9 12 15 13 15 17 19 22 24 22 27 29 31 32 33 33 32 36 33 33 34 36 38 40
7 5 8 9 3 3 4 5 6 8 10 16 13 11 10 8 8 10 10 9 11 11 12 15 17 17 17 20 20 22 23 29 35 32 30 34 33 32 32 32 32 33 32 33
5 3 4 5 5 4 5 6 6 8 9 13 13 11 9 8 8 9 8 9 12 12 14 16 20 20 20 20 23 22 23 24 25 33 36 31 34 33 32 30 31 29 29 30
7 5 4 6 7 7 8 9 8 9 10 11 12 9 9 8 7 8 9 10 12 13 15 17 19 21 22 22 19 22 23 23 24 21 27 34 30 31 32 31 27 26 27 26
5 6 6 7 8 8 9 9 9 9 9 10 10 10 9 8 8 9 10 12 13 13 14 16 17 21 22 23 21 20 21 22 22 22 23 20 29 27 28 32 31 27 24 25
3 9 7 8 8 9 8 8 9 10 10 10 11 10 11 8 9 9 10 11 13 14 15 16 19 21 22 22 21 21 20 20 21 20 21 21 18 17 22 26 29 29 28 28
4 9 12 11 10 9 9 9 9 10 11 10 12 13 12 11 9 10 11 12 12 14 16 15 16 20 21 23 23 21 21 18 19 20 19 20 19 19 18 15 23 27 27 27
11 13 9 10 7 9 12 12 13 12 11 11 12 12 12 11 12 12 11 12 13 15 16 15 16 20 18 17 20 19 18 19 18 19 19 20 19 19 18 18 17 21 25 23
3 3 9 12 12 11 14 14 10 9 10 11 10 10 11 12 11 11 11 12 13 14 14 14 14 16 14 16 10 16 19 18 17 17 19 19 19 18 18 17 17 15 22 28
10 11 11 11 11 10 10 10 9 8 8 10 11 12 13 13 13 13 13 14 11 12 11 13 16 14 15 17 17 16 16 20 18 17 18 19 17 16 16 17 17 17 17 22
11 9 10 10 10 10 9 8 10 9 9 9 10 11 12 14 13 12 11 10 12 12 12 14 15 19 16 18 19 17 17 17 16 17 16 16 16 17 17 18 17 17 14 15
8 10 8 10 7 8 8 10 11 12 11 13 15 17 16 15 11 9 8 9 12 15 15 15 15 15 17 16 17 14 15 14 14 15 16 17 17 18 16 16 16 16 16 16
8 8 9 11 12 10 10 11 13 17 16 15 14 13 13 13 10 8 6 4 5 12 12 11 13 13 13 15 16 13 14 14 14 14 14 15 15 15 15 15 15 15 16 16
9 12 14 14 14 16 15 16 17 17 15 16 16 14 13 11 10 8 9 12 9 7 7 10 9 11 13 11 13 13 13 13 14 14 14 14 14 15 15 15 14 14 14 14
12 15 15 16 15 16 15 15 17 15 14 14 13 12 12 10 8 4 6 9 5 6 4 7 10 11 11 11 13 13 13 14 15 15 15 16 16 15 16 16 16 15 14 13
12 12 14 14 14 14 13 13 14 15 13 14 14 14 12 8 6 6 12 10 5 6 5 6 8 11 12 11 11 12 13 14 15 16 16 16 17 18 19 18 18 18 18 17
12 13 13 13 13 14 13 13 13 14 14 15 15 12 6 8 4 6 9 6 7 6 8 6 9 10 11 11 11 13 15 16 17 17 17 19 18 18 19 19 21 20 20 18
13 13 13 14 16 15 14 12 13 13 14 14 10 8 4 6 6 9 8 5 5 3 0 6 9 10 11 12 12 14 15 16 17 18 18 17 21 21 21 21 20 21 22 23
13 14 14 14 14 13 15 15 14 13 13 11 9 5 6 8 12 10 8 7 7 8 9 9 11 11 10 13 13 15 15 16 17 16 17 18 19 20 20 21 21 21 21 22
14 13 14 14 13 15 15 15 13 13 13 13 9 9 7 7 8 9 7 7 7 6 7 9 11 11 11 13 13 14 15 15 16 15 16 18 17 18 19 20 19 20 21 21
13 14 13 12 14 14 13 12 13 11 13 14 13 9 10 8 8 8 8 8 7 6 7 8 9 11 11 12 12 13 13 13 15 16 15 16 16 17 18 19 19 20 20 21

GFSNGP_925_spd_117.txt.gz
Wind_Speed
6 9 8 8 15 8 7 7 6 10 7 8 6 12 9 12 13 13 12 12 11 12 13 18 19 21 23 22 25 27 28 28 30 29 28 27 26 26 27 27 28 32 32 27
2 7 10 11 10 11 7 5 7 8 2 13 12 14 14 12 12 11 10 11 12 12 16 18 20 20 19 23 27 29 28 30 32 29 26 25 28 33 34 35 30 36 42 29
3 2 5 4 4 3 6 6 3 4 3 10 12 14 11 11 10 11 11 11 9 10 13 15 17 20 23 25 29 28 30 32 30 28 26 29 31 32 33 32 32 36 40 35
2 2 3 2 9 8 4 10 7 8 10 11 12 11 10 9 9 9 9 9 6 11 14 16 19 21 23 27 27 28 30 30 33 31 30 33 33 33 34 34 35 39 43 42
3 3 4 2 5 4 3 2 8 4 10 13 14 11 10 9 10 9 7 9 11 15 15 17 20 20 22 26 25 28 29 30 30 33 31 32 34 33 32 34 37 40 41 48
1 3 4 2 4 7 6 3 5 6 5 10 10 2 2 7 7 8 12 12 13 14 14 15 17 17 21 19 20 26 29 28 27 29 32 33 30 33 31 33 36 38 43 47
2 3 1 3 3 2 2 3 4 6 6 4 3 2 10 7 5 9 10 11 13 13 14 14 15 20 21 21 22 21 25 33 35 31 31 32 30 31 33 31 34 36 39 42
2 2 6 5 3 3 1 3 4 7 7 14 14 11 9 7 7 10 10 10 9 11 14 19 22 22 18 23 22 23 21 25 35 36 32 35 33 33 31 33 33 34 35 37
2 2 4 4 4 4 5 4 3 6 7 11 13 11 9 8 7 10 10 11 12 13 16 19 21 20 22 19 21 23 25 25 26 34 34 31 36 34 33 32 30 30 31 31
4 5 6 7 6 7 7 7 6 8 10 9 12 10 9 8 7 8 9 12 14 15 16 17 17 19 21 22 20 22 23 25 24 23 30 32 30 31 32 32 31 29 28 27
4 6 7 7 7 8 8 8 9 9 9 9 10 9 8 7 9 9 12 14 14 15 15 16 17 22 23 23 22 22 24 25 24 25 22 25 27 28 30 33 32 28 28 27
1 9 5 8 9 10 9 8 8 10 10 11 11 9 11 10 9 12 15 16 17 16 16 14 17 20 25 23 24 24 21 22 25 23 25 23 19 21 25 27 27 27 29 30
3 7 10 11 10 10 9 9 10 10 12 10 13 14 13 11 9 16 19 19 17 16 14 12 16 21 20 23 19 22 22 23 24 25 25 25 24 23 21 22 30 27 26 27
11 13 9 8 6 10 12 13 15 14 14 14 15 13 12 9 17 17 18 19 18 16 14 13 15 19 19 17 23 22 23 21 21 22 23 23 23 24 24 19 22 29 29 26
4 5 9 12 13 10 14 14 10 8 10 12 14 12 16 16 16 17 17 15 14 16 16 16 17 19 21 17 13 19 19 19 19 20 21 21 21 23 23 22 21 23 26 27
9 11 10 10 11 11 11 9 9 6 8 10 14 19 21 20 19 17 14 12 15 15 14 19 19 16 18 17 17 17 17 17 19 20 22 24 24 22 22 22 20 19 21 21
11 9 10 8 7 7 8 9 11 10 12 13 15 19 21 19 16 14 16 15 15 17 16 15 16 14 16 16 17 17 18 19 19 21 23 21 21 22 21 20 21 21 21 20
7 8 8 8 7 7 9 13 14 14 12 14 16 23 21 16 14 15 15 16 16 15 14 13 12 14 16 17 16 17 18 20 19 19 18 18 19 19 18 18 18 19 19 17
10 8 13 13 15 13 12 14 16 19 21 21 21 19 18 17 15 13 10 10 11 12 10 8 11 10 14 16 17 15 16 16 16 16 16 16 17 16 17 17 17 16 16 15
10 14 18 16 19 22 17 19 22 21 19 19 20 20 18 15 12 12 12 15 10 12 10 11 11 14 13 15 14 13 14 15 16 16 16 17 18 19 19 19 19 18 17 16
11 17 17 18 17 18 21 22 21 19 17 19 20 19 18 15 12 14 14 13 11 8 6 8 14 13 10 11 12 12 13 15 16 17 17 19 19 19 20 20 21 21 21 20
13 15 16 17 17 17 18 18 19 21 19 18 18 18 17 15 12 11 13 12 9 6 11 8 11 10 9 11 11 12 14 14 15 17 17 17 19 20 20 21 20 19 20 22
13 15 16 16 16 17 18 19 21 21 20 20 20 18 15 12 12 17 14 10 9 8 8 8 9 8 9 10 11 12 13 14 15 15 16 17 18 17 18 18 18 19 20 19
15 15 16 20 22 19 16 17 17 17 19 19 12 6 9 18 16 15 15 11 7 7 8 8 9 6 8 10 11 12 12 13 13 14 16 16 16 16 16 17 18 19 19 20
14 15 18 17 15 13 16 17 17 18 17 14 13 13 12 18 19 17 13 11 11 10 9 8 8 9 10 10 11 12 12 13 14 15 15 14 16 17 17 18 19 20 20 19
15 13 14 14 14 18 18 18 16 18 19 18 16 14 13 14 15 16 14 12 11 11 11 9 8 9 9 8 10 10 11 12 15 14 14 15 16 17 18 19 18 18 18 20
13 15 14 14 20 20 21 20 21 19 23 22 20 18 18 17 17 16 13 11 9 8 6 6 7 8 9 9 9 10 10 12 15 12 14 16 19 19 20 17 18 16 17 16

GFSNGP_925_spd_120.txt.gz
Wind_Speed
4 2 3 3 9 14 8 9 10 11 4 7 7 10 10 10 10 9 9 8 9 9 11 14 14 16 20 23 25 29 27 28 29 27 31 28 29 31 30 29 29 30 26 27
2 3 4 7 11 9 8 6 5 5 4 6 10 12 11 8 8 8 8 8 8 7 11 13 15 19 23 27 29 26 24 26 31 32 31 33 32 32 31 33 33 33 30 28
3 1 1 4 6 11 7 4 0 3 4 5 5 7 6 6 6 7 6 6 7 9 13 14 18 21 25 25 23 23 27 29 31 34 34 33 32 31 31 31 34 32 31 35
2 1 4 1 5 6 11 6 6 8 8 6 9 7 7 6 5 5 5 5 7 9 13 16 19 21 18 21 26 28 26 28 32 33 31 32 31 29 30 31 33 34 38 38
3 3 1 1 4 2 3 2 3 6 7 9 11 11 8 7 6 5 3 7 11 14 13 16 18 18 17 19 22 28 26 27 28 30 29 29 30 31 30 30 32 35 36 41
2 3 5 5 1 4 3 4 4 3 9 10 10 2 3 9 8 6 10 11 11 10 14 18 17 16 17 18 19 23 27 26 29 29 29 30 29 27 28 27 29 31 37 41
2 2 4 3 1 2 3 5 2 2 3 6 6 2 9 9 10 13 13 12 12 14 17 20 15 18 17 22 24 18 25 32 33 30 28 30 29 31 30 29 29 32 34 38
3 2 7 1 1 5 2 1 1 2 1 5 11 12 9 7 7 11 9 10 10 14 16 17 18 19 19 22 20 20 21 27 32 31 29 30 30 30 32 31 30 32 33 35
4 4 3 3 3 3 1 3 2 4 5 10 12 11 10 9 8 9 10 12 13 13 13 15 16 18 22 21 19 20 22 21 23 29 29 28 29 29 30 31 32 30 30 31
3 3 6 7 6 4 3 4 5 8 9 8 11 9 9 8 7 9 12 12 12 12 12 14 18 22 19 15 15 19 18 19 19 20 24 24 27 28 29 31 28 29 28 28
3 6 7 6 6 6 6 6 9 8 9 8 10 8 8 8 9 12 12 12 11 11 12 15 20 21 18 15 13 15 19 21 22 23 22 25 27 30 29 31 30 27 28 28
4 8 4 6 9 8 7 7 8 10 9 9 10 8 12 9 12 12 14 13 12 12 13 17 20 18 16 17 18 19 20 22 23 23 23 22 21 24 27 26 27 28 29 31
4 4 6 12 10 6 9 8 8 10 13 10 13 16 15 12 12 16 16 14 14 13 13 15 14 14 17 17 19 21 22 23 24 25 25 26 25 22 24 28 28 26 26 27
13 16 9 8 5 8 10 12 15 13 14 14 16 17 14 16 17 15 14 13 12 13 13 13 14 12 13 18 19 21 21 22 23 23 23 23 24 22 21 22 20 27 26 24
3 3 7 10 13 10 13 14 11 10 11 13 15 12 17 15 15 14 13 12 14 15 13 12 14 17 17 14 18 19 19 18 19 21 21 21 21 21 22 22 23 23 22 22
9 12 11 12 11 11 11 10 10 9 11 13 12 17 17 18 16 13 11 10 14 15 14 16 17 17 15 15 17 16 18 19 19 20 20 20 21 20 21 20 20 20 21 20
12 10 10 10 11 11 10 9 10 10 13 17 18 20 19 16 14 14 16 17 18 17 15 17 17 16 15 15 15 18 16 17 17 17 19 19 18 19 18 18 19 19 19 19
7 7 8 9 9 10 9 13 15 16 15 19 22 21 19 17 16 19 18 17 17 16 15 14 13 14 14 14 14 14 15 14 15 16 16 17 18 19 20 19 20 20 18 17
11 9 12 13 15 14 14 14 15 18 20 24 24 19 19 23 23 21 17 15 15 14 13 12 11 12 13 13 12 11 12 12 15 17 16 17 18 18 18 19 19 19 19 20
8 13 15 15 18 19 16 18 22 22 22 24 23 23 22 20 18 15 13 14 14 14 11 9 9 11 11 10 9 11 12 13 15 15 16 16 17 17 16 17 17 19 19 19
9 15 15 16 15 17 20 24 24 21 20 22 23 21 22 18 17 18 19 15 12 11 9 9 10 9 9 9 9 10 12 12 13 14 14 14 14 15 16 15 17 18 18 18
12 12 14 16 16 16 18 21 21 20 19 18 20 24 22 20 19 12 10 16 10 10 7 9 9 7 7 7 8 10 11 12 12 12 13 13 14 13 14 15 16 18 17 16
12 14 16 15 16 17 18 18 20 22 22 22 23 23 21 18 17 19 13 12 14 12 9 9 7 5 5 7 8 9 10 11 11 11 11 12 12 13 13 14 14 16 16 16
14 15 16 18 20 18 14 16 18 18 19 18 18 19 17 18 13 11 15 15 13 10 9 8 7 7 6 7 8 8 9 9 10 10 9 10 12 13 13 13 14 14 14 14
14 16 17 17 15 12 16 16 16 17 19 15 12 12 17 17 19 19 16 15 13 11 10 7 6 8 8 8 8 8 8 9 10 9 10 12 13 14 13 13 12 13 12 12
14 13 14 13 13 16 17 18 17 17 17 18 18 19 19 19 20 18 17 15 12 8 7 6 6 7 7 6 6 7 7 8 8 8 10 12 15 17 16 14 13 11 11 12
12 14 12 12 15 17 18 18 20 18 23 22 19 20 22 22 20 19 17 14 11 8 7 6 5 5 6 5 5 7 8 8 6 8 11 14 17 17 16 15 14 13 13 15